Time,TemperatureF,DewpointF,PressureIn,WindDirection,WindDirectionDegrees,WindSpeedMPH,WindSpeedGustMPH,Humidity,HourlyPrecipIn,Conditions,Clouds,dailyrainin,SolarRadiationWatts/m^2,SoftwareType,DateUTC
2013-01-30 00:03:00,26.5,24.0,30.06,South,169,11.5,11.5,90,0.00,RA,FEW,0.00,0.0,WeatherDisplay:10.37,2013-01-30 05:03:00,
2013-01-30 00:04:00,26.5,24.0,30.05,South,178,11.0,11.0,90,0.00,RA,FEW,0.00,0.0,WeatherDisplay:10.37,2013-01-30 05:04:00,
2013-01-30 00:06:00,26.5,24.0,30.05,SSE,166,7.0,13.0,90,0.00,RA,FEW,0.00,0.0,WeatherDisplay:10.37,2013-01-30 05:06:00,
2013-01-30 00:09:00,26.5,24.0,30.05,SSE,157,9.2,9.2,90,0.00,RA,FEW,0.00,0.0,WeatherDisplay:10.37,2013-01-30 05:09:00,
2013-01-30 00:14:00,26.6,24.3,30.05,South,171,9.2,9.2,91,0.00,OVC,FEW,0.00,0.0,WeatherDisplay:10.37,2013-01-30 05:14:00,
2013-01-30 00:19:00,26.7,24.4,30.05,SSE,155,11.5,11.5,91,0.00,OVC,FEW,0.00,0.0,WeatherDisplay:10.37,2013-01-30 05:19:00,
2013-01-30 00:24:00,26.8,24.5,30.05,South,182,6.0,6.0,91,0.00,OVC,FEW,0.00,0.0,WeatherDisplay:10.37,2013-01-30 05:24:00,
2013-01-30 00:29:00,26.8,24.8,30.04,SE,139,10.4,10.4,92,0.00,OVC,FEW,0.00,0.0,WeatherDisplay:10.37,2013-01-30 05:29:00,
2013-01-30 00:34:00,26.8,25.0,30.03,ESE,116,10.4,10.4,93,0.00,OVC,FEW,0.00,0.0,WeatherDisplay:10.37,2013-01-30 05:34:00,
2013-01-30 00:39:00,26.9,25.1,30.03,SSE,155,9.2,9.2,93,0.00,OVC,FEW,0.00,0.0,WeatherDisplay:10.37,2013-01-30 05:39:00,
2013-01-30 00:44:00,26.9,25.4,30.03,South,169,10.0,10.0,94,0.00,OVC,FEW,0.00,0.0,WeatherDisplay:10.37,2013-01-30 05:44:00,
2013-01-30 00:49:00,27.1,25.6,30.03,SE,140,7.0,7.0,94,0.00,OVC,FEW,0.00,0.0,WeatherDisplay:10.37,2013-01-30 05:49:00,
2013-01-30 00:54:00,27.2,25.7,30.02,South,182,12.7,12.7,94,0.00,OVC,FEW,0.00,0.0,WeatherDisplay:10.37,2013-01-30 05:54:00,
2013-01-30 00:59:00,27.3,25.8,30.02,South,175,10.0,10.0,94,0.00,OVC,FEW,0.00,0.0,WeatherDisplay:10.37,2013-01-30 05:59:00,
2013-01-30 01:04:00,27.5,26.0,30.02,SSE,151,9.0,9.0,94,0.00,OVC,FEW,0.00,0.0,WeatherDisplay:10.37,2013-01-30 06:04:00,
2013-01-30 01:09:00,27.7,26.2,30.02,SSE,150,11.0,11.0,94,0.00,OVC,FEW,0.00,0.0,WeatherDisplay:10.37,2013-01-30 06:09:00,
2013-01-30 01:14:00,27.8,26.3,30.01,SE,139,9.2,9.2,94,0.00,OVC,FEW,0.00,0.0,WeatherDisplay:10.37,2013-01-30 06:14:00,
2013-01-30 01:19:00,27.7,26.2,30.01,South,186,11.0,11.0,94,0.00,OVC,FEW,0.00,0.0,WeatherDisplay:10.37,2013-01-30 06:19:00,
2013-01-30 01:24:00,27.7,26.2,30.01,SSE,148,9.2,9.2,94,0.00,OVC,FEW,0.00,0.0,WeatherDisplay:10.37,2013-01-30 06:24:00,
2013-01-30 01:29:00,27.8,26.3,30.01,South,170,7.0,7.0,94,0.00,OVC,FEW,0.00,0.0,WeatherDisplay:10.37,2013-01-30 06:29:00,
2013-01-30 01:34:00,27.9,26.4,30.01,SSW,193,11.5,11.5,94,0.00,OVC,FEW,0.00,0.0,WeatherDisplay:10.37,2013-01-30 06:34:00,
2013-01-30 01:39:00,28.0,26.5,30.01,SSW,194,9.0,9.0,94,0.00,OVC,FEW,0.00,0.0,WeatherDisplay:10.37,2013-01-30 06:39:00,
2013-01-30 01:44:00,28.0,26.8,30.00,South,173,9.0,9.0,95,0.00,OVC,FEW,0.00,0.0,WeatherDisplay:10.37,2013-01-30 06:44:00,
2013-01-30 01:49:00,28.2,27.0,30.00,South,173,7.0,7.0,95,0.00,OVC,FEW,0.00,0.0,WeatherDisplay:10.37,2013-01-30 06:49:00,
2013-01-30 01:54:00,28.3,27.1,30.00,South,186,7.0,7.0,95,0.00,OVC,FEW,0.00,0.0,WeatherDisplay:10.37,2013-01-30 06:54:00,
2013-01-30 01:59:00,28.3,27.1,30.00,SSE,153,5.0,5.0,95,0.00,OVC,FEW,0.00,0.0,WeatherDisplay:10.37,2013-01-30 06:59:00,
2013-01-30 02:04:00,28.3,27.1,29.99,South,172,7.0,7.0,95,0.00,OVC,FEW,0.00,0.0,WeatherDisplay:10.37,2013-01-30 07:04:00,
2013-01-30 02:09:00,28.4,27.2,29.99,South,177,5.8,5.8,95,0.00,OVC,FEW,0.00,0.0,WeatherDisplay:10.37,2013-01-30 07:09:00,
2013-01-30 02:14:00,28.7,27.4,29.99,SSE,164,5.0,5.0,95,0.00,OVC,FEW,0.00,0.0,WeatherDisplay:10.37,2013-01-30 07:14:00,
2013-01-30 02:19:00,28.8,27.5,29.99,SSE,151,5.0,5.0,95,0.00,OVC,FEW,0.00,0.0,WeatherDisplay:10.37,2013-01-30 07:19:00,
2013-01-30 02:24:00,28.9,27.6,29.98,SSE,165,5.0,5.0,95,0.00,OVC,FEW,0.00,0.0,WeatherDisplay:10.37,2013-01-30 07:24:00,
2013-01-30 02:29:00,29.1,27.8,29.99,South,188,6.0,6.0,95,0.00,OVC,FEW,0.00,0.0,WeatherDisplay:10.37,2013-01-30 07:29:00,
2013-01-30 02:34:00,29.2,27.9,29.98,SSE,165,5.0,5.0,95,0.00,OVC,FEW,0.00,0.0,WeatherDisplay:10.37,2013-01-30 07:34:00,
2013-01-30 02:39:00,29.3,28.3,29.97,SSE,163,7.0,7.0,96,0.00,OVC,FEW,0.00,0.0,WeatherDisplay:10.37,2013-01-30 07:39:00,
2013-01-30 02:44:00,29.4,28.4,29.97,SSE,164,5.0,5.0,96,0.00,OVC,FEW,0.00,0.0,WeatherDisplay:10.37,2013-01-30 07:44:00,
2013-01-30 02:49:00,29.6,28.6,29.97,SSE,155,3.5,3.5,96,0.00,OVC,FEW,0.00,0.0,WeatherDisplay:10.37,2013-01-30 07:49:00,
2013-01-30 02:54:00,29.7,28.7,29.96,SSE,153,4.0,4.0,96,0.00,OVC,FEW,0.00,0.0,WeatherDisplay:10.37,2013-01-30 07:54:00,
2013-01-30 02:59:00,29.7,28.7,29.96,SSE,157,4.0,4.0,96,0.00,OVC,FEW,0.00,0.0,WeatherDisplay:10.37,2013-01-30 07:59:00,
2013-01-30 03:04:00,29.7,28.7,29.96,SE,138,5.0,5.0,96,0.00,OVC,FEW,0.00,0.0,WeatherDisplay:10.37,2013-01-30 08:04:00,
2013-01-30 03:09:00,29.8,28.8,29.95,SE,133,6.0,6.0,96,0.00,OVC,FEW,0.00,0.0,WeatherDisplay:10.37,2013-01-30 08:09:00,
2013-01-30 03:14:00,29.8,28.8,29.95,South,169,4.6,4.6,96,0.00,OVC,FEW,0.00,0.0,WeatherDisplay:10.37,2013-01-30 08:14:00,
2013-01-30 03:19:00,29.8,28.8,29.94,SSE,149,5.8,5.8,96,0.00,OVC,FEW,0.00,0.0,WeatherDisplay:10.37,2013-01-30 08:19:00,
2013-01-30 03:24:00,30.0,29.0,29.94,SSE,147,3.5,3.5,96,0.00,OVC,FEW,0.00,0.0,WeatherDisplay:10.37,2013-01-30 08:24:00,
2013-01-30 03:29:00,30.1,29.1,29.94,SSE,153,3.5,3.5,96,0.00,OVC,FEW,0.00,0.0,WeatherDisplay:10.37,2013-01-30 08:29:00,
2013-01-30 03:34:00,30.2,29.2,29.93,SSE,149,3.5,3.5,96,0.00,OVC,FEW,0.00,0.0,WeatherDisplay:10.37,2013-01-30 08:34:00,
2013-01-30 03:39:00,30.3,29.3,29.93,SSE,151,2.0,2.0,96,0.00,OVC,FEW,0.00,0.0,WeatherDisplay:10.37,2013-01-30 08:39:00,
2013-01-30 03:44:00,30.4,29.4,29.92,SE,128,4.0,4.0,96,0.00,OVC,FEW,0.00,0.0,WeatherDisplay:10.37,2013-01-30 08:44:00,
2013-01-30 03:49:00,30.5,29.5,29.92,SE,137,4.6,4.6,96,0.00,OVC,FEW,0.00,0.0,WeatherDisplay:10.37,2013-01-30 08:49:00,
2013-01-30 03:54:00,30.6,29.6,29.91,SE,146,3.5,3.5,96,0.00,OVC,FEW,0.00,0.0,WeatherDisplay:10.37,2013-01-30 08:54:00,
2013-01-30 03:59:00,30.7,29.7,29.91,SSE,158,4.0,4.0,96,0.00,OVC,FEW,0.00,0.0,WeatherDisplay:10.37,2013-01-30 08:59:00,
2013-01-30 04:04:00,30.7,29.7,29.91,SSE,157,4.0,4.0,96,0.00,OVC,FEW,0.00,0.0,WeatherDisplay:10.37,2013-01-30 09:04:00,
2013-01-30 04:09:00,30.7,29.7,29.91,SE,132,4.0,4.0,96,0.00,OVC,FEW,0.00,0.0,WeatherDisplay:10.37,2013-01-30 09:09:00,
2013-01-30 04:14:00,30.8,29.8,29.90,South,184,3.5,3.5,96,0.00,OVC,FEW,0.00,0.0,WeatherDisplay:10.37,2013-01-30 09:14:00,
2013-01-30 04:19:00,30.9,29.9,29.90,SE,146,3.5,3.5,96,0.00,OVC,FEW,0.00,0.0,WeatherDisplay:10.37,2013-01-30 09:19:00,
2013-01-30 04:24:00,31.0,30.0,29.90,SE,146,4.0,4.0,96,0.00,OVC,FEW,0.00,0.0,WeatherDisplay:10.37,2013-01-30 09:24:00,
2013-01-30 04:29:00,31.1,30.1,29.89,SSE,153,4.6,4.6,96,0.00,OVC,FEW,0.00,0.0,WeatherDisplay:10.37,2013-01-30 09:29:00,
2013-01-30 04:34:00,31.1,30.1,29.89,SSE,155,3.5,3.5,96,0.00,OVC,FEW,0.00,0.0,WeatherDisplay:10.37,2013-01-30 09:34:00,
2013-01-30 04:39:00,31.2,30.2,29.89,SSE,161,5.0,5.0,96,0.00,OVC,FEW,0.00,0.0,WeatherDisplay:10.37,2013-01-30 09:39:00,
2013-01-30 04:44:00,31.1,30.1,29.89,SSE,160,2.3,2.3,96,0.00,OVC,FEW,0.00,0.0,WeatherDisplay:10.37,2013-01-30 09:44:00,
2013-01-30 04:49:00,31.1,30.1,29.89,SSE,161,4.0,4.0,96,0.00,OVC,FEW,0.00,0.0,WeatherDisplay:10.37,2013-01-30 09:49:00,
2013-01-30 04:54:00,31.1,30.1,29.89,SSE,161,3.0,3.0,96,0.00,OVC,FEW,0.00,0.0,WeatherDisplay:10.37,2013-01-30 09:54:00,
2013-01-30 04:59:00,31.1,30.1,29.89,ESE,117,6.0,6.0,96,0.00,OVC,FEW,0.00,0.0,WeatherDisplay:10.37,2013-01-30 09:59:00,
2013-01-30 05:04:00,31.3,30.3,29.88,SE,137,3.5,3.5,96,0.00,OVC,FEW,0.00,0.0,WeatherDisplay:10.37,2013-01-30 10:04:00,
2013-01-30 05:09:00,31.4,30.4,29.88,SE,137,3.5,3.5,96,0.00,OVC,FEW,0.00,0.0,WeatherDisplay:10.37,2013-01-30 10:09:00,
2013-01-30 05:14:00,31.4,30.4,29.88,SE,138,2.0,2.0,96,0.00,OVC,FEW,0.00,0.0,WeatherDisplay:10.37,2013-01-30 10:14:00,
2013-01-30 05:19:00,31.5,30.5,29.88,SE,138,1.1,1.1,96,0.00,OVC,FEW,0.00,0.0,WeatherDisplay:10.37,2013-01-30 10:19:00,
2013-01-30 05:24:00,31.4,30.4,29.88,SE,138,1.1,1.1,96,0.00,OVC,FEW,0.00,0.0,WeatherDisplay:10.37,2013-01-30 10:24:00,
2013-01-30 05:29:00,31.4,30.4,29.88,SE,138,3.5,3.5,96,0.00,OVC,FEW,0.00,0.0,WeatherDisplay:10.37,2013-01-30 10:29:00,
2013-01-30 05:34:00,31.5,30.5,29.88,SE,138,3.5,3.5,96,0.00,OVC,FEW,0.00,0.0,WeatherDisplay:10.37,2013-01-30 10:34:00,
2013-01-30 05:39:00,31.5,30.5,29.87,SE,138,3.5,3.5,96,0.00,OVC,FEW,0.00,0.0,WeatherDisplay:10.37,2013-01-30 10:39:00,
2013-01-30 05:44:00,31.6,30.6,29.87,SE,138,3.5,3.5,96,0.00,OVC,FEW,0.00,0.0,WeatherDisplay:10.37,2013-01-30 10:44:00,
2013-01-30 05:49:00,31.6,30.6,29.86,SSE,147,5.0,5.0,96,0.00,OVC,FEW,0.00,0.0,WeatherDisplay:10.37,2013-01-30 10:49:00,
2013-01-30 05:54:00,31.9,30.9,29.86,SSE,161,3.5,3.5,96,0.00,OVC,FEW,0.00,0.0,WeatherDisplay:10.37,2013-01-30 10:54:00,
2013-01-30 05:59:00,32.1,31.3,29.86,SSE,161,3.5,3.5,97,0.00,OVC,FEW,0.00,0.0,WeatherDisplay:10.37,2013-01-30 10:59:00,
2013-01-30 06:04:00,32.0,31.2,29.85,SSE,153,1.1,1.1,97,0.00,OVC,FEW,0.00,0.0,WeatherDisplay:10.37,2013-01-30 11:04:00,
2013-01-30 06:09:00,32.0,31.2,29.85,SSE,152,5.0,5.0,97,0.00,OVC,FEW,0.00,0.0,WeatherDisplay:10.37,2013-01-30 11:09:00,
2013-01-30 06:14:00,32.0,31.2,29.85,SE,140,4.0,4.0,97,0.00,OVC,FEW,0.00,0.0,WeatherDisplay:10.37,2013-01-30 11:14:00,
2013-01-30 06:19:00,32.0,31.2,29.84,SSE,152,4.0,4.0,97,0.00,OVC,FEW,0.00,0.0,WeatherDisplay:10.37,2013-01-30 11:19:00,
2013-01-30 06:24:00,31.9,31.1,29.84,SE,133,6.0,6.0,97,0.00,OVC,FEW,0.00,0.0,WeatherDisplay:10.37,2013-01-30 11:24:00,
2013-01-30 06:29:00,32.0,31.2,29.83,ESE,121,3.5,3.5,97,0.00,OVC,FEW,0.00,0.0,WeatherDisplay:10.37,2013-01-30 11:29:00,
2013-01-30 06:34:00,32.3,31.5,29.83,SE,142,6.0,6.0,97,0.00,OVC,FEW,0.00,0.0,WeatherDisplay:10.37,2013-01-30 11:34:00,
2013-01-30 06:39:00,32.7,31.9,29.82,SE,132,5.0,5.0,97,0.00,OVC,FEW,0.00,0.0,WeatherDisplay:10.37,2013-01-30 11:39:00,
2013-01-30 06:44:00,32.7,31.9,29.83,SE,130,3.5,3.5,97,0.00,OVC,FEW,0.00,0.0,WeatherDisplay:10.37,2013-01-30 11:44:00,
2013-01-30 06:49:00,32.6,31.8,29.83,SE,133,3.5,3.5,97,0.00,OVC,FEW,0.00,0.0,WeatherDisplay:10.37,2013-01-30 11:49:00,
2013-01-30 06:54:00,32.9,32.1,29.83,ESE,118,5.0,5.0,97,0.00,OVC,FEW,0.00,0.0,WeatherDisplay:10.37,2013-01-30 11:54:00,
2013-01-30 06:59:00,32.7,31.9,29.82,SE,132,5.0,5.0,97,0.00,OVC,FEW,0.00,0.0,WeatherDisplay:10.37,2013-01-30 11:59:00,
2013-01-30 07:04:00,32.8,32.0,29.81,SE,145,4.0,4.0,97,0.00,BKN,FEW,0.00,0.0,WeatherDisplay:10.37,2013-01-30 12:04:00,
2013-01-30 07:09:00,32.7,31.9,29.81,SE,131,4.0,4.0,97,0.00,BKN,FEW,0.00,0.0,WeatherDisplay:10.37,2013-01-30 12:09:00,
2013-01-30 07:14:00,32.8,32.0,29.81,SE,142,6.0,6.0,97,0.00,BKN,FEW,0.00,0.0,WeatherDisplay:10.37,2013-01-30 12:14:00,
2013-01-30 07:19:00,32.9,31.9,29.81,SE,128,6.0,6.0,96,0.00,BKN,FEW,0.00,0.0,WeatherDisplay:10.37,2013-01-30 12:19:00,
2013-01-30 07:24:00,32.7,31.9,29.80,SE,132,10.0,10.0,97,0.00,BKN,FEW,0.00,0.0,WeatherDisplay:10.37,2013-01-30 12:24:00,
2013-01-30 07:29:00,32.7,31.9,29.80,SE,144,7.0,7.0,97,0.00,BKN,FEW,0.00,7.0,WeatherDisplay:10.37,2013-01-30 12:29:00,
2013-01-30 07:34:00,33.1,32.3,29.80,SE,142,5.0,5.0,97,0.00,BKN,FEW,0.00,12.0,WeatherDisplay:10.37,2013-01-30 12:34:00,
2013-01-30 07:39:00,33.4,32.6,29.80,SE,134,4.0,4.0,97,0.00,BKN,FEW,0.00,16.0,WeatherDisplay:10.37,2013-01-30 12:39:00,
2013-01-30 07:44:00,33.6,32.8,29.79,SSW,201,7.0,7.0,97,0.00,BKN,FEW,0.00,19.0,WeatherDisplay:10.37,2013-01-30 12:44:00,
2013-01-30 07:49:00,33.9,33.1,29.79,SE,145,6.0,6.0,97,0.00,SCT,FEW,0.00,21.0,WeatherDisplay:10.37,2013-01-30 12:49:00,
2013-01-30 07:54:00,34.0,33.2,29.79,SE,138,6.9,6.9,97,0.00,SCT,FEW,0.00,21.0,WeatherDisplay:10.37,2013-01-30 12:54:00,
2013-01-30 07:59:00,33.8,33.0,29.78,SSE,147,5.0,5.0,97,0.00,SCT,FEW,0.00,32.0,WeatherDisplay:10.37,2013-01-30 12:59:00,
2013-01-30 08:04:00,33.8,33.0,29.78,South,177,4.0,4.0,97,0.00,FEW,,0.00,32.0,WeatherDisplay:10.37,2013-01-30 13:04:00,
2013-01-30 08:09:00,33.9,33.1,29.79,SSE,159,6.0,6.0,97,0.00,FEW,,0.00,40.0,WeatherDisplay:10.37,2013-01-30 13:09:00,
2013-01-30 08:14:00,34.0,33.2,29.79,South,175,5.0,5.0,97,0.00,FEW,,0.00,51.0,WeatherDisplay:10.37,2013-01-30 13:14:00,
2013-01-30 08:19:00,34.0,33.2,29.78,SSE,160,5.0,5.0,97,0.00,FEW,,0.00,86.0,WeatherDisplay:10.37,2013-01-30 13:19:00,
2013-01-30 08:24:00,34.1,33.3,29.77,SSE,155,6.0,6.0,97,0.00,FEW,,0.00,125.0,WeatherDisplay:10.37,2013-01-30 13:24:00,
2013-01-30 08:29:00,34.4,33.6,29.77,South,173,5.0,5.0,97,0.00,FEW,,0.00,130.0,WeatherDisplay:10.37,2013-01-30 13:29:00,
2013-01-30 08:34:00,34.5,33.7,29.76,SSE,150,9.2,9.2,97,0.00,FEW,,0.00,123.0,WeatherDisplay:10.37,2013-01-30 13:34:00,
2013-01-30 08:39:00,34.5,33.7,29.76,SE,144,5.0,5.0,97,0.00,FEW,,0.00,120.0,WeatherDisplay:10.37,2013-01-30 13:39:00,
2013-01-30 08:44:00,34.6,33.8,29.76,SE,142,10.4,10.4,97,0.00,FEW,,0.00,125.0,WeatherDisplay:10.37,2013-01-30 13:44:00,
2013-01-30 08:49:00,34.6,33.6,29.76,SE,144,5.0,5.0,96,0.00,FEW,,0.00,114.0,WeatherDisplay:10.37,2013-01-30 13:49:00,
2013-01-30 08:54:00,34.8,33.8,29.76,SE,136,6.0,6.0,96,0.00,FEW,,0.00,120.0,WeatherDisplay:10.37,2013-01-30 13:54:00,
2013-01-30 08:59:00,35.2,34.4,29.75,SSE,151,4.0,4.0,97,0.00,FEW,,0.00,146.0,WeatherDisplay:10.37,2013-01-30 13:59:00,
2013-01-30 09:04:00,35.6,34.8,29.75,SSE,153,2.3,2.3,97,0.00,CLR,FEW,0.00,169.0,WeatherDisplay:10.37,2013-01-30 14:04:00,
2013-01-30 09:09:00,36.1,35.3,29.75,SSE,161,5.0,5.0,97,0.00,CLR,FEW,0.00,246.0,WeatherDisplay:10.37,2013-01-30 14:09:00,
2013-01-30 09:14:00,36.5,35.7,29.75,SSE,155,10.4,10.4,97,0.00,CLR,FEW,0.00,213.0,WeatherDisplay:10.37,2013-01-30 14:14:00,
2013-01-30 09:19:00,36.5,35.5,29.74,SSE,167,3.5,3.5,96,0.00,CLR,FEW,0.00,209.0,WeatherDisplay:10.37,2013-01-30 14:19:00,
2013-01-30 09:24:00,36.5,35.5,29.74,SSE,157,5.0,5.0,96,0.00,CLR,FEW,0.00,169.0,WeatherDisplay:10.37,2013-01-30 14:24:00,
2013-01-30 09:30:00,36.4,35.1,29.74,SSE,163,3.5,3.5,95,0.00,CLR,FEW,0.00,178.0,WeatherDisplay:10.37,2013-01-30 14:30:00,
2013-01-30 09:35:00,36.4,35.1,29.73,SSE,163,3.5,3.5,95,0.00,CLR,FEW,0.00,190.0,WeatherDisplay:10.37,2013-01-30 14:35:00,
2013-01-30 09:40:00,36.5,35.2,29.73,South,177,4.0,4.0,95,0.00,CLR,FEW,0.00,167.0,WeatherDisplay:10.37,2013-01-30 14:40:00,
2013-01-30 09:45:00,36.5,35.2,29.72,South,170,4.0,4.0,95,0.00,CLR,FEW,0.00,190.0,WeatherDisplay:10.37,2013-01-30 14:45:00,
2013-01-30 09:50:00,36.8,35.8,29.71,South,181,7.0,7.0,96,0.00,CLR,FEW,0.00,229.0,WeatherDisplay:10.37,2013-01-30 14:50:00,
2013-01-30 09:55:00,37.5,36.5,29.70,SSW,212,4.0,4.0,96,0.00,CLR,FEW,0.00,287.0,WeatherDisplay:10.37,2013-01-30 14:55:00,
2013-01-30 10:00:00,37.9,36.9,29.70,South,186,5.0,5.0,96,0.00,CLR,FEW,0.00,204.0,WeatherDisplay:10.37,2013-01-30 15:00:00,
2013-01-30 10:05:00,38.2,36.9,29.69,South,182,5.0,5.0,95,0.00,BKN,FEW,0.00,121.0,WeatherDisplay:10.37,2013-01-30 15:05:00,
2013-01-30 10:10:00,38.4,37.1,29.69,SSW,199,8.0,8.0,95,0.00,BKN,FEW,0.00,70.0,WeatherDisplay:10.37,2013-01-30 15:10:00,
2013-01-30 10:15:00,38.9,37.9,29.68,South,186,8.1,8.1,96,0.00,BKN,FEW,0.00,58.0,WeatherDisplay:10.37,2013-01-30 15:15:00,
2013-01-30 10:20:00,39.6,38.6,29.68,SSW,207,12.0,12.0,96,0.00,OVC,FEW,0.00,72.0,WeatherDisplay:10.37,2013-01-30 15:20:00,
2013-01-30 10:25:00,40.1,39.1,29.68,SSW,207,11.5,11.5,96,0.00,OVC,FEW,0.00,98.0,WeatherDisplay:10.37,2013-01-30 15:25:00,
2013-01-30 10:30:00,40.4,39.4,29.68,SW,217,11.5,11.5,96,0.00,OVC,FEW,0.00,114.0,WeatherDisplay:10.37,2013-01-30 15:30:00,
2013-01-30 10:35:00,40.8,39.7,29.67,SSW,208,11.5,11.5,96,0.00,OVC,FEW,0.00,107.0,WeatherDisplay:10.37,2013-01-30 15:35:00,
2013-01-30 10:40:00,40.9,39.6,29.67,SSW,206,9.2,9.2,95,0.00,OVC,FEW,0.00,95.0,WeatherDisplay:10.37,2013-01-30 15:40:00,
2013-01-30 10:45:00,41.1,39.8,29.67,SSW,207,14.0,14.0,95,0.00,OVC,FEW,0.00,118.0,WeatherDisplay:10.37,2013-01-30 15:45:00,
2013-01-30 10:50:00,41.5,40.2,29.67,SSW,204,8.1,8.1,95,0.00,SCT,FEW,0.00,56.0,WeatherDisplay:10.37,2013-01-30 15:50:00,
2013-01-30 10:55:00,41.7,40.4,29.66,SSW,211,7.0,7.0,95,0.00,SCT,FEW,0.00,47.0,WeatherDisplay:10.37,2013-01-30 15:55:00,
2013-01-30 11:00:00,41.8,40.5,29.66,SSW,196,7.0,7.0,95,0.00,SCT,FEW,0.00,37.0,WeatherDisplay:10.37,2013-01-30 16:00:00,
2013-01-30 11:05:00,42.0,40.7,29.66,South,178,6.0,6.0,95,0.00,CLR,FEW,0.00,35.0,WeatherDisplay:10.37,2013-01-30 16:05:00,
2013-01-30 11:10:00,42.0,40.7,29.65,South,175,3.5,3.5,95,0.00,CLR,FEW,0.00,33.0,WeatherDisplay:10.37,2013-01-30 16:10:00,
2013-01-30 11:15:00,41.9,40.6,29.65,South,183,6.0,6.0,95,0.01,RA,FEW,0.01,30.0,WeatherDisplay:10.37,2013-01-30 16:15:00,
2013-01-30 11:20:00,41.9,40.6,29.64,SSE,164,6.0,6.0,95,0.01,RA,FEW,0.01,33.0,WeatherDisplay:10.37,2013-01-30 16:20:00,
2013-01-30 11:25:00,41.5,39.9,29.64,SSE,166,4.0,4.0,94,0.03,RA,FEW,0.03,35.0,WeatherDisplay:10.37,2013-01-30 16:25:00,
2013-01-30 11:30:00,41.4,39.8,29.63,SSW,195,5.0,5.0,94,0.04,RA,FEW,0.04,46.0,WeatherDisplay:10.37,2013-01-30 16:30:00,
2013-01-30 11:35:00,41.2,39.6,29.63,SSW,203,5.0,5.0,94,0.16,RA,FEW,0.21,44.0,WeatherDisplay:10.37,2013-01-30 16:35:00,
2013-01-30 11:40:00,41.1,39.8,29.62,SSW,194,9.2,9.2,95,0.29,RA,FEW,0.29,60.0,WeatherDisplay:10.37,2013-01-30 16:40:00,
2013-01-30 11:45:00,41.5,40.4,29.61,SW,217,6.0,6.0,96,0.31,RA,FEW,0.31,69.0,WeatherDisplay:10.37,2013-01-30 16:45:00,
2013-01-30 11:50:00,42.0,40.9,29.61,SW,228,10.4,10.4,96,0.32,RA,FEW,0.32,95.0,WeatherDisplay:10.37,2013-01-30 16:50:00,
2013-01-30 11:55:00,42.4,41.3,29.60,SSW,196,9.2,9.2,96,0.33,RA,FEW,0.33,120.0,WeatherDisplay:10.37,2013-01-30 16:55:00,
2013-01-30 12:00:00,42.5,41.2,29.59,SW,215,11.0,11.0,95,0.34,RA,FEW,0.34,144.0,WeatherDisplay:10.37,2013-01-30 17:00:00,
2013-01-30 12:06:00,42.8,41.5,29.58,SW,236,10.4,10.4,95,0.35,RA,FEW,0.35,149.0,WeatherDisplay:10.37,2013-01-30 17:06:00,
2013-01-30 12:11:00,42.9,41.6,29.58,SW,217,10.4,10.4,95,0.36,RA,FEW,0.36,132.0,WeatherDisplay:10.37,2013-01-30 17:11:00,
2013-01-30 12:16:00,43.2,41.9,29.58,South,179,5.0,5.0,95,0.35,RA,FEW,0.36,128.0,WeatherDisplay:10.37,2013-01-30 17:16:00,
2013-01-30 12:21:00,43.7,42.4,29.57,SW,227,10.0,10.0,95,0.36,RA,FEW,0.37,141.0,WeatherDisplay:10.37,2013-01-30 17:21:00,
2013-01-30 12:26:00,44.2,42.9,29.57,SSW,210,9.2,9.2,95,0.35,RA,FEW,0.38,113.0,WeatherDisplay:10.37,2013-01-30 17:26:00,
2013-01-30 12:31:00,44.6,43.3,29.57,SSW,196,9.2,9.2,95,0.34,RA,FEW,0.39,142.0,WeatherDisplay:10.37,2013-01-30 17:31:00,
2013-01-30 12:36:00,45.4,44.1,29.57,SW,235,12.0,12.0,95,0.23,RA,FEW,0.39,125.0,WeatherDisplay:10.37,2013-01-30 17:36:00,
2013-01-30 12:41:00,46.1,44.5,29.57,SW,217,12.0,12.0,94,0.10,RA,FEW,0.40,86.0,WeatherDisplay:10.37,2013-01-30 17:41:00,
2013-01-30 12:46:00,46.5,44.6,29.57,SSW,202,4.0,4.0,93,0.10,RA,FEW,0.41,162.0,WeatherDisplay:10.37,2013-01-30 17:46:00,
2013-01-30 12:51:00,46.6,44.7,29.57,SSW,209,6.0,6.0,93,0.09,RA,FEW,0.41,153.0,WeatherDisplay:10.37,2013-01-30 17:51:00,
2013-01-30 12:56:00,46.8,45.2,29.56,SSW,199,9.2,9.2,94,0.08,CLR,FEW,0.41,139.0,WeatherDisplay:10.37,2013-01-30 17:56:00,
2013-01-30 13:01:00,46.7,44.5,29.56,South,186,3.5,3.5,92,0.08,RA,FEW,0.42,118.0,WeatherDisplay:10.37,2013-01-30 18:01:00,
2013-01-30 13:06:00,46.6,44.7,29.55,SSW,202,5.8,5.8,93,0.08,RA,FEW,0.43,127.0,WeatherDisplay:10.37,2013-01-30 18:06:00,
2013-01-30 13:11:00,46.8,45.2,29.54,SSW,212,11.0,11.0,94,0.08,RA,FEW,0.43,248.0,WeatherDisplay:10.37,2013-01-30 18:11:00,
2013-01-30 13:16:00,47.3,45.4,29.53,SSW,202,6.0,6.0,93,0.06,OVC,FEW,0.43,190.0,WeatherDisplay:10.37,2013-01-30 18:16:00,
2013-01-30 13:21:00,47.5,45.6,29.53,South,182,5.0,5.0,93,0.07,RA,FEW,0.44,132.0,WeatherDisplay:10.37,2013-01-30 18:21:00,
2013-01-30 13:26:00,47.8,45.9,29.52,SSW,193,7.0,7.0,93,0.07,RA,FEW,0.45,135.0,WeatherDisplay:10.37,2013-01-30 18:26:00,
2013-01-30 13:31:00,48.4,46.5,29.52,South,180,10.4,10.4,93,0.07,RA,FEW,0.45,116.0,WeatherDisplay:10.37,2013-01-30 18:31:00,
2013-01-30 13:36:00,48.7,46.2,29.51,SSW,204,6.0,6.0,91,0.06,OVC,FEW,0.45,97.0,WeatherDisplay:10.37,2013-01-30 18:36:00,
2013-01-30 13:41:00,48.4,45.9,29.51,SSW,198,9.0,9.0,91,0.06,RA,FEW,0.46,114.0,WeatherDisplay:10.37,2013-01-30 18:41:00,
2013-01-30 13:46:00,48.3,45.8,29.51,South,178,6.0,6.0,91,0.05,RA,FEW,0.46,102.0,WeatherDisplay:10.37,2013-01-30 18:46:00,
2013-01-30 13:51:00,47.9,45.4,29.51,South,186,2.3,2.3,91,0.05,OVC,FEW,0.46,63.0,WeatherDisplay:10.37,2013-01-30 18:51:00,
2013-01-30 13:56:00,47.8,45.6,29.50,SSW,196,4.0,4.0,92,0.06,RA,FEW,0.47,49.0,WeatherDisplay:10.37,2013-01-30 18:56:00,
2013-01-30 14:01:00,48.1,46.2,29.50,South,186,3.5,3.5,93,0.05,RA,FEW,0.47,63.0,WeatherDisplay:10.37,2013-01-30 19:01:00,
2013-01-30 14:06:00,48.3,46.4,29.50,SSW,200,6.0,6.0,93,0.04,OVC,FEW,0.47,47.0,WeatherDisplay:10.37,2013-01-30 19:06:00,
2013-01-30 14:11:00,48.8,46.9,29.50,SSW,206,4.0,4.0,93,0.04,OVC,FEW,0.47,81.0,WeatherDisplay:10.37,2013-01-30 19:11:00,
2013-01-30 14:16:00,49.2,47.0,29.49,SW,224,4.0,4.0,92,0.04,OVC,FEW,0.47,67.0,WeatherDisplay:10.37,2013-01-30 19:16:00,
2013-01-30 14:21:00,49.3,47.1,29.49,WSW,246,6.0,6.0,92,0.03,SCT,FEW,0.47,44.0,WeatherDisplay:10.37,2013-01-30 19:21:00,
2013-01-30 14:26:00,49.6,47.4,29.48,SW,234,4.0,4.0,92,0.03,RA,FEW,0.48,39.0,WeatherDisplay:10.37,2013-01-30 19:26:00,
2013-01-30 14:31:00,50.0,47.8,29.47,South,186,5.0,5.0,92,0.03,RA,FEW,0.48,49.0,WeatherDisplay:10.37,2013-01-30 19:31:00,
2013-01-30 14:36:00,50.1,47.9,29.48,WSW,238,7.0,7.0,92,0.03,SCT,FEW,0.48,46.0,WeatherDisplay:10.37,2013-01-30 19:36:00,
2013-01-30 14:41:00,50.4,47.9,29.48,SW,232,4.6,4.6,91,0.03,RA,FEW,0.49,28.0,WeatherDisplay:10.37,2013-01-30 19:41:00,
2013-01-30 14:46:00,50.5,48.0,29.47,South,187,3.5,3.5,91,0.03,RA,FEW,0.49,65.0,WeatherDisplay:10.37,2013-01-30 19:46:00,
2013-01-30 14:51:00,50.5,48.0,29.47,SSW,205,5.0,5.0,91,0.03,SCT,FEW,0.49,58.0,WeatherDisplay:10.37,2013-01-30 19:51:00,
2013-01-30 14:56:00,50.6,47.8,29.47,SW,219,6.0,6.0,90,0.02,SCT,FEW,0.49,37.0,WeatherDisplay:10.37,2013-01-30 19:56:00,
2013-01-30 15:01:00,50.8,48.0,29.47,WSW,238,5.0,5.0,90,0.02,SCT,FEW,0.49,30.0,WeatherDisplay:10.37,2013-01-30 20:01:00,
2013-01-30 15:06:00,50.6,47.5,29.47,WSW,239,11.0,11.0,89,0.02,CLR,FEW,0.49,46.0,WeatherDisplay:10.37,2013-01-30 20:06:00,
2013-01-30 15:11:00,50.6,47.8,29.47,WSW,242,7.0,7.0,90,0.02,CLR,FEW,0.49,32.0,WeatherDisplay:10.37,2013-01-30 20:11:00,
2013-01-30 15:16:00,50.5,47.7,29.47,SSW,208,4.6,4.6,90,0.02,CLR,FEW,0.49,33.0,WeatherDisplay:10.37,2013-01-30 20:16:00,
2013-01-30 15:21:00,50.5,47.7,29.47,SSW,211,3.5,3.5,90,0.02,CLR,FEW,0.49,14.0,WeatherDisplay:10.37,2013-01-30 20:21:00,
2013-01-30 15:26:00,50.4,47.6,29.46,SSW,202,3.5,3.5,90,0.01,CLR,FEW,0.49,16.0,WeatherDisplay:10.37,2013-01-30 20:26:00,
2013-01-30 15:31:00,50.1,47.6,29.46,SW,232,5.0,5.0,91,0.03,RA,FEW,0.51,11.0,WeatherDisplay:10.37,2013-01-30 20:31:00,
2013-01-30 15:36:00,49.9,47.7,29.46,North,351,0.0,0.0,92,0.03,RA,FEW,0.51,21.0,WeatherDisplay:10.37,2013-01-30 20:36:00,
2013-01-30 15:41:00,49.7,47.8,29.45,SSW,213,6.0,6.0,93,0.02,CLR,FEW,0.51,14.0,WeatherDisplay:10.37,2013-01-30 20:41:00,
2013-01-30 15:46:00,49.5,47.6,29.46,SSW,202,4.0,4.0,93,0.02,CLR,FEW,0.51,16.0,WeatherDisplay:10.37,2013-01-30 20:46:00,
2013-01-30 15:51:00,49.3,47.6,29.45,South,188,5.0,5.0,94,0.02,CLR,FEW,0.51,21.0,WeatherDisplay:10.37,2013-01-30 20:51:00,
2013-01-30 15:56:00,49.3,47.6,29.45,SSW,198,4.0,4.0,94,0.02,CLR,FEW,0.51,37.0,WeatherDisplay:10.37,2013-01-30 20:56:00,
2013-01-30 16:01:00,49.3,47.6,29.45,SSW,208,5.0,5.0,94,0.02,CLR,FEW,0.51,53.0,WeatherDisplay:10.37,2013-01-30 21:01:00,
2013-01-30 16:06:00,49.3,47.6,29.45,South,184,10.4,10.4,94,0.02,OVC,FEW,0.51,21.0,WeatherDisplay:10.37,2013-01-30 21:06:00,
2013-01-30 16:11:00,49.2,47.5,29.45,SW,218,9.2,9.2,94,0.02,OVC,FEW,0.51,16.0,WeatherDisplay:10.37,2013-01-30 21:11:00,
2013-01-30 16:16:00,49.2,47.5,29.45,SSW,207,6.9,6.9,94,0.02,OVC,FEW,0.51,9.0,WeatherDisplay:10.37,2013-01-30 21:16:00,
2013-01-30 16:21:00,49.1,47.4,29.45,SSW,204,3.5,3.5,94,0.02,OVC,FEW,0.51,7.0,WeatherDisplay:10.37,2013-01-30 21:21:00,
2013-01-30 16:26:00,49.1,47.4,29.44,SSW,211,6.9,6.9,94,0.02,OVC,FEW,0.51,5.0,WeatherDisplay:10.37,2013-01-30 21:26:00,
2013-01-30 16:31:00,49.5,47.8,29.44,SSW,196,7.0,7.0,94,0.00,OVC,FEW,0.51,0.0,WeatherDisplay:10.37,2013-01-30 21:31:00,
2013-01-30 16:36:00,49.6,47.7,29.43,SSW,203,5.8,5.8,93,0.00,OVC,FEW,0.51,0.0,WeatherDisplay:10.37,2013-01-30 21:36:00,
2013-01-30 16:41:00,49.7,48.0,29.41,SSW,193,14.0,14.0,94,0.00,OVC,FEW,0.51,0.0,WeatherDisplay:10.37,2013-01-30 21:41:00,
2013-01-30 16:46:00,49.7,47.8,29.42,South,188,6.0,6.0,93,0.00,OVC,FEW,0.51,0.0,WeatherDisplay:10.37,2013-01-30 21:46:00,
2013-01-30 16:51:00,49.8,47.9,29.41,SW,217,14.0,14.0,93,0.00,OVC,FEW,0.51,0.0,WeatherDisplay:10.37,2013-01-30 21:51:00,
2013-01-30 16:56:00,50.4,48.2,29.40,SSW,193,14.0,14.0,92,0.00,OVC,FEW,0.51,0.0,WeatherDisplay:10.37,2013-01-30 21:56:00,
2013-01-30 17:01:00,50.6,48.4,29.40,SSW,210,11.5,11.5,92,0.00,OVC,FEW,0.51,0.0,WeatherDisplay:10.37,2013-01-30 22:01:00,
2013-01-30 17:06:00,50.4,47.9,29.40,WNW,298,12.7,12.7,91,0.00,OVC,FEW,0.51,0.0,WeatherDisplay:10.37,2013-01-30 22:06:00,
2013-01-30 17:11:00,50.5,48.3,29.40,SSW,211,12.0,12.0,92,0.00,OVC,FEW,0.51,0.0,WeatherDisplay:10.37,2013-01-30 22:11:00,
2013-01-30 17:16:00,50.6,48.1,29.41,SSE,152,11.0,11.0,91,0.00,OVC,FEW,0.51,0.0,WeatherDisplay:10.37,2013-01-30 22:16:00,
2013-01-30 17:21:00,51.0,48.8,29.41,SSW,209,16.1,16.1,92,0.00,OVC,FEW,0.51,0.0,WeatherDisplay:10.37,2013-01-30 22:21:00,
2013-01-30 17:26:00,51.5,48.7,29.42,SSW,207,17.0,17.0,90,0.00,OVC,FEW,0.51,0.0,WeatherDisplay:10.37,2013-01-30 22:26:00,
2013-01-30 17:31:00,51.5,48.7,29.42,SSE,163,11.5,11.5,90,0.00,OVC,FEW,0.51,0.0,WeatherDisplay:10.37,2013-01-30 22:31:00,
2013-01-30 17:36:00,51.2,48.4,29.42,SW,214,8.1,8.1,90,0.00,OVC,FEW,0.51,0.0,WeatherDisplay:10.37,2013-01-30 22:36:00,
2013-01-30 17:41:00,51.0,48.2,29.42,South,178,6.0,6.0,90,0.00,OVC,FEW,0.51,0.0,WeatherDisplay:10.37,2013-01-30 22:41:00,
2013-01-30 17:46:00,50.7,48.2,29.43,SW,226,5.0,5.0,91,0.00,OVC,FEW,0.51,0.0,WeatherDisplay:10.37,2013-01-30 22:46:00,
2013-01-30 17:51:00,51.1,48.3,29.43,SSW,211,10.4,10.4,90,0.00,OVC,FEW,0.51,0.0,WeatherDisplay:10.37,2013-01-30 22:51:00,
2013-01-30 17:56:00,50.8,48.3,29.43,SSE,163,10.0,10.0,91,0.00,OVC,FEW,0.51,0.0,WeatherDisplay:10.37,2013-01-30 22:56:00,
2013-01-30 18:01:00,50.6,48.1,29.42,SSW,204,7.0,7.0,91,0.00,OVC,FEW,0.51,0.0,WeatherDisplay:10.37,2013-01-30 23:01:00,
2013-01-30 18:06:00,50.3,48.4,29.43,SW,232,17.3,17.3,93,0.00,OVC,FEW,0.51,0.0,WeatherDisplay:10.37,2013-01-30 23:06:00,
2013-01-30 18:11:00,50.2,48.3,29.44,SSW,208,15.0,15.0,93,0.00,OVC,FEW,0.51,0.0,WeatherDisplay:10.37,2013-01-30 23:11:00,
2013-01-30 18:16:00,50.0,48.3,29.44,SW,232,14.0,14.0,94,0.01,RA,FEW,0.52,0.0,WeatherDisplay:10.37,2013-01-30 23:16:00,
2013-01-30 18:21:00,49.8,48.1,29.43,South,169,5.0,5.0,94,0.01,RA,FEW,0.52,0.0,WeatherDisplay:10.37,2013-01-30 23:21:00,
2013-01-30 18:26:00,49.5,48.1,29.43,SSW,211,11.0,11.0,95,0.01,OVC,FEW,0.52,0.0,WeatherDisplay:10.37,2013-01-30 23:26:00,
2013-01-30 18:31:00,49.4,48.0,29.42,South,185,11.0,11.0,95,0.01,OVC,FEW,0.52,0.0,WeatherDisplay:10.37,2013-01-30 23:31:00,
2013-01-30 18:36:00,49.1,47.7,29.42,South,189,10.4,10.4,95,0.01,OVC,FEW,0.52,0.0,WeatherDisplay:10.37,2013-01-30 23:36:00,
2013-01-30 18:41:00,49.2,47.8,29.41,SW,234,14.0,14.0,95,0.01,OVC,FEW,0.53,0.0,WeatherDisplay:10.37,2013-01-30 23:41:00,
2013-01-30 18:46:00,49.0,47.6,29.42,SSW,209,9.2,9.2,95,0.02,RA,FEW,0.53,0.0,WeatherDisplay:10.37,2013-01-30 23:46:00,
2013-01-30 18:51:00,48.9,47.5,29.42,SSW,199,11.0,11.0,95,0.02,RA,FEW,0.53,0.0,WeatherDisplay:10.37,2013-01-30 23:51:00,
2013-01-30 18:56:00,49.0,47.9,29.42,SSW,208,10.4,10.4,96,0.02,OVC,FEW,0.53,0.0,WeatherDisplay:10.37,2013-01-30 23:56:00,
2013-01-30 19:01:00,48.9,47.8,29.42,SSE,162,7.0,7.0,96,0.02,OVC,FEW,0.53,0.0,WeatherDisplay:10.37,2013-01-31 00:01:00,
2013-01-30 19:06:00,49.0,47.9,29.42,SSW,208,4.0,4.0,96,0.02,OVC,FEW,0.53,0.0,WeatherDisplay:10.37,2013-01-31 00:06:00,
2013-01-30 19:11:00,49.0,47.6,29.41,SSW,209,5.8,5.8,95,0.02,OVC,FEW,0.53,0.0,WeatherDisplay:10.37,2013-01-31 00:11:00,
2013-01-30 19:16:00,48.8,47.7,29.41,SSE,159,5.0,5.0,96,0.01,OVC,FEW,0.53,0.0,WeatherDisplay:10.37,2013-01-31 00:16:00,
2013-01-30 19:21:00,48.9,47.8,29.40,WSW,252,11.5,11.5,96,0.01,OVC,FEW,0.53,0.0,WeatherDisplay:10.37,2013-01-31 00:21:00,
2013-01-30 19:26:00,49.0,47.9,29.41,SSW,205,5.8,5.8,96,0.01,OVC,FEW,0.53,0.0,WeatherDisplay:10.37,2013-01-31 00:26:00,
2013-01-30 19:31:00,49.1,48.0,29.41,SSW,207,1.1,1.1,96,0.01,OVC,FEW,0.53,0.0,WeatherDisplay:10.37,2013-01-31 00:31:00,
2013-01-30 19:36:00,49.1,48.0,29.41,SSW,196,4.0,4.0,96,0.02,RA,FEW,0.54,0.0,WeatherDisplay:10.37,2013-01-31 00:36:00,
2013-01-30 19:41:00,49.3,48.2,29.39,SW,223,5.0,5.0,96,0.02,RA,FEW,0.54,0.0,WeatherDisplay:10.37,2013-01-31 00:41:00,
2013-01-30 19:46:00,49.4,48.3,29.39,SSW,197,2.3,2.3,96,0.01,OVC,FEW,0.54,0.0,WeatherDisplay:10.37,2013-01-31 00:46:00,
2013-01-30 19:51:00,49.3,48.2,29.40,South,187,4.0,4.0,96,0.01,OVC,FEW,0.54,0.0,WeatherDisplay:10.37,2013-01-31 00:51:00,
2013-01-30 19:56:00,49.3,48.2,29.40,WSW,246,7.0,7.0,96,0.01,OVC,FEW,0.54,0.0,WeatherDisplay:10.37,2013-01-31 00:56:00,
2013-01-30 20:01:00,49.4,48.3,29.40,South,184,3.5,3.5,96,0.02,RA,FEW,0.55,0.0,WeatherDisplay:10.37,2013-01-31 01:01:00,
2013-01-30 20:07:00,49.4,48.3,29.40,South,190,3.5,3.5,96,0.02,-RA,FEW,0.55,0.0,WeatherDisplay:10.37,2013-01-31 01:07:00,
2013-01-30 20:12:00,49.5,48.7,29.40,SSW,197,6.0,6.0,97,0.02,-RA,FEW,0.55,0.0,WeatherDisplay:10.37,2013-01-31 01:12:00,
2013-01-30 20:17:00,49.7,48.9,29.41,SSW,209,3.5,3.5,97,0.02,-RA,FEW,0.55,0.0,WeatherDisplay:10.37,2013-01-31 01:17:00,
2013-01-30 20:22:00,49.7,48.9,29.41,SSW,200,5.8,5.8,97,0.02,-RA,FEW,0.55,0.0,WeatherDisplay:10.37,2013-01-31 01:22:00,
2013-01-30 20:27:00,49.7,48.9,29.41,SSE,167,6.0,6.0,97,0.02,-RA,FEW,0.55,0.0,WeatherDisplay:10.37,2013-01-31 01:27:00,
2013-01-30 20:32:00,49.8,49.0,29.41,SSW,209,4.0,4.0,97,0.03,-RA,FEW,0.56,0.0,WeatherDisplay:10.37,2013-01-31 01:32:00,
2013-01-30 20:37:00,49.6,48.8,29.41,WSW,242,12.0,12.0,97,0.02,-RA,FEW,0.56,0.0,WeatherDisplay:10.37,2013-01-31 01:37:00,
2013-01-30 20:42:00,49.8,49.0,29.42,SSW,207,9.0,9.0,97,0.02,-RA,FEW,0.56,0.0,WeatherDisplay:10.37,2013-01-31 01:42:00,
2013-01-30 20:47:00,49.9,49.1,29.41,South,183,6.9,6.9,97,0.02,-RA,FEW,0.56,0.0,WeatherDisplay:10.37,2013-01-31 01:47:00,
2013-01-30 20:52:00,49.8,48.7,29.41,SSW,195,9.0,9.0,96,0.02,-RA,FEW,0.56,0.0,WeatherDisplay:10.37,2013-01-31 01:52:00,
2013-01-30 20:57:00,49.7,48.9,29.42,SW,221,6.0,6.0,97,0.02,-RA,FEW,0.56,0.0,WeatherDisplay:10.37,2013-01-31 01:57:00,
2013-01-30 21:02:00,49.5,48.4,29.40,SSW,207,4.0,4.0,96,0.02,-RA,FEW,0.57,0.0,WeatherDisplay:10.37,2013-01-31 02:02:00,
2013-01-30 21:07:00,49.4,48.3,29.39,SW,227,3.5,3.5,96,0.02,-RA,FEW,0.57,0.0,WeatherDisplay:10.37,2013-01-31 02:07:00,
2013-01-30 21:12:00,49.3,48.2,29.38,SW,227,9.2,9.2,96,0.02,-RA,FEW,0.57,0.0,WeatherDisplay:10.37,2013-01-31 02:12:00,
2013-01-30 21:17:00,49.2,48.1,29.37,WSW,240,9.2,9.2,96,0.02,-RA,FEW,0.57,0.0,WeatherDisplay:10.37,2013-01-31 02:17:00,
2013-01-30 21:22:00,49.2,48.4,29.38,South,185,2.3,2.3,97,0.02,-RA,FEW,0.57,0.0,WeatherDisplay:10.37,2013-01-31 02:22:00,
2013-01-30 21:27:00,49.2,48.4,29.37,SSW,202,4.0,4.0,97,0.02,-RA,FEW,0.57,0.0,WeatherDisplay:10.37,2013-01-31 02:27:00,
2013-01-30 21:32:00,49.3,48.5,29.36,South,180,4.0,4.0,97,0.01,-RA,FEW,0.57,0.0,WeatherDisplay:10.37,2013-01-31 02:32:00,
2013-01-30 21:37:00,49.4,48.6,29.36,South,180,2.3,2.3,97,0.01,-RA,FEW,0.57,0.0,WeatherDisplay:10.37,2013-01-31 02:37:00,
2013-01-30 21:42:00,49.5,48.7,29.36,South,185,3.5,3.5,97,0.01,-RA,FEW,0.57,0.0,WeatherDisplay:10.37,2013-01-31 02:42:00,
2013-01-30 21:47:00,49.5,48.7,29.36,South,185,1.0,0.0,97,0.01,-RA,FEW,0.57,0.0,WeatherDisplay:10.37,2013-01-31 02:47:00,
2013-01-30 21:52:00,49.5,48.7,29.36,South,185,1.1,1.1,97,0.01,-RA,FEW,0.57,0.0,WeatherDisplay:10.37,2013-01-31 02:52:00,
2013-01-30 21:57:00,49.5,48.7,29.36,SW,229,4.0,4.0,97,0.01,-RA,FEW,0.57,0.0,WeatherDisplay:10.37,2013-01-31 02:57:00,
2013-01-30 22:02:00,49.4,48.6,29.36,SSW,206,3.0,3.0,97,0.00,-RA,FEW,0.57,0.0,WeatherDisplay:10.37,2013-01-31 03:02:00,
2013-01-30 22:07:00,49.4,48.6,29.36,SSW,211,4.6,4.6,97,0.00,-RA,FEW,0.57,0.0,WeatherDisplay:10.37,2013-01-31 03:07:00,
2013-01-30 22:12:00,49.4,48.6,29.35,SSW,208,4.0,4.0,97,0.00,-RA,FEW,0.57,0.0,WeatherDisplay:10.37,2013-01-31 03:12:00,
2013-01-30 22:17:00,49.4,48.3,29.33,SSW,209,5.8,5.8,96,0.00,-RA,FEW,0.57,0.0,WeatherDisplay:10.37,2013-01-31 03:17:00,
2013-01-30 22:22:00,49.3,48.2,29.33,SSW,208,3.5,3.5,96,0.00,-RA,FEW,0.57,0.0,WeatherDisplay:10.37,2013-01-31 03:22:00,
2013-01-30 22:27:00,49.1,48.0,29.33,SW,214,12.0,12.0,96,0.00,-RA,FEW,0.57,0.0,WeatherDisplay:10.37,2013-01-31 03:27:00,
2013-01-30 22:32:00,49.4,48.6,29.33,SSW,205,10.4,10.4,97,0.00,-RA,FEW,0.57,0.0,WeatherDisplay:10.37,2013-01-31 03:32:00,
2013-01-30 22:37:00,49.3,48.2,29.34,SW,223,5.0,5.0,96,0.00,-RA,FEW,0.57,0.0,WeatherDisplay:10.37,2013-01-31 03:37:00,
2013-01-30 22:42:00,49.4,48.3,29.33,South,181,5.0,5.0,96,0.00,-RA,FEW,0.57,0.0,WeatherDisplay:10.37,2013-01-31 03:42:00,
2013-01-30 22:48:00,49.3,48.2,29.33,SSW,203,7.0,7.0,96,0.00,-RA,FEW,0.57,0.0,WeatherDisplay:10.37,2013-01-31 03:48:00,
2013-01-30 22:53:00,49.3,48.2,29.32,SSW,213,6.0,6.0,96,0.01,-RA,FEW,0.58,0.0,WeatherDisplay:10.37,2013-01-31 03:53:00,
2013-01-30 22:58:00,49.2,48.1,29.32,SW,219,10.4,10.4,96,0.01,-RA,FEW,0.58,0.0,WeatherDisplay:10.37,2013-01-31 03:58:00,
2013-01-30 23:03:00,49.3,48.2,29.32,South,182,11.5,11.5,96,0.01,-RA,FEW,0.58,0.0,WeatherDisplay:10.37,2013-01-31 04:03:00,
2013-01-30 23:08:00,49.4,48.3,29.32,SW,215,10.4,10.4,96,0.01,-RA,FEW,0.58,0.0,WeatherDisplay:10.37,2013-01-31 04:08:00,
2013-01-30 23:13:00,49.5,48.4,29.31,SSW,208,10.4,10.4,96,0.01,-RA,FEW,0.58,0.0,WeatherDisplay:10.37,2013-01-31 04:13:00,
2013-01-30 23:18:00,49.5,48.4,29.31,SW,236,11.5,11.5,96,0.01,-RA,FEW,0.58,0.0,WeatherDisplay:10.37,2013-01-31 04:18:00,
2013-01-30 23:23:00,49.6,48.5,29.31,SSW,194,10.4,10.4,96,0.01,-RA,FEW,0.58,0.0,WeatherDisplay:10.37,2013-01-31 04:23:00,
2013-01-30 23:28:00,49.6,48.5,29.31,SSW,203,9.2,9.2,96,0.01,-RA,FEW,0.58,0.0,WeatherDisplay:10.37,2013-01-31 04:28:00,
2013-01-30 23:33:00,49.5,48.4,29.31,SW,221,5.0,5.0,96,0.01,-RA,FEW,0.58,0.0,WeatherDisplay:10.37,2013-01-31 04:33:00,
2013-01-30 23:38:00,49.5,48.4,29.32,SSW,209,4.6,4.6,96,0.02,-RA,FEW,0.59,0.0,WeatherDisplay:10.37,2013-01-31 04:38:00,
2013-01-30 23:43:00,49.5,48.4,29.31,SSW,208,5.8,5.8,96,0.02,-RA,FEW,0.59,0.0,WeatherDisplay:10.37,2013-01-31 04:43:00,
2013-01-30 23:48:00,49.5,48.4,29.30,SSW,202,4.0,4.0,96,0.02,-RA,FEW,0.59,0.0,WeatherDisplay:10.37,2013-01-31 04:48:00,
2013-01-30 23:53:00,49.4,48.3,29.29,SSW,205,5.0,5.0,96,0.01,-RA,FEW,0.59,0.0,WeatherDisplay:10.37,2013-01-31 04:53:00,
2013-01-30 23:58:00,49.4,48.3,29.28,SSW,205,3.5,3.5,96,0.01,-RA,FEW,0.59,0.0,WeatherDisplay:10.37,2013-01-31 04:58:00,